Regional Weather Roundup
Issued by NWS Newport/Morehead, NC

Current Version | Previous Version | Graphics & Text | Print | Product List | Glossary On
Versions: 1 2 3 4 5 6 7 8 9 10 11 12 13 14 15 16 17 18 19 20 21 22 23 24 25 26 27 28 29 30 31 32 33 34 35 36 37 38 39 40 41 42 43 44 45 46 47 48 49 50
000 ASUS42 KMHX 251814 RWRMHX WEATHER ROUNDUP FOR EASTERN NORTH CAROLINA NATIONAL WEATHER SERVICE NEWPORT/MOREHEAD CITY NC 200 PM EDT TUE JUL 25 2017 NOTE: "FAIR" INDICATES FEW OR NO CLOUDS BELOW 12,000 FEET WITH NO SIGNIFICANT WEATHER AND/OR OBSTRUCTIONS TO VISIBILITY NCZ015>017-031-032-045>047-102-103-251900- NORTH COAST CITY SKY/WX TMP DP RH WIND PRES REMARKS EDENTON MOSUNNY 87 73 61 CALM 30.07S ELIZABETH CITY MOSUNNY 86 73 65 NE14 30.06S KITTY HAWK CLOUDY 80 69 70 NE5 30.07R MANTEO SUNNY 81 69 67 NE13 30.08R $$ NCZ045>047-081-094-103-104-251900- CENTRAL COAST CITY SKY/WX TMP DP RH WIND PRES REMARKS FRISCO CLOUDY 84 74 71 NE10 30.06S $$ NCZ095-097-098-100-101-251900- SOUTHERN COAST CITY SKY/WX TMP DP RH WIND PRES REMARKS BEAUFORT PTSUNNY 86 78 77 SW13 30.04F CEDAR ISLAND NOT AVBL JACKSONVILLE MOSUNNY 90 80 72 E8 30.03F HX 107 PINEY ISLAND CLEAR N/A N/A N/A NE10 30.04S WILMINGTON MOSUNNY 91 76 61 S5 30.03F HX 103 $$ NCZ011>013-027>030-043-044-078>080-089-090>093-098-251900- COASTAL PLAIN CITY SKY/WX TMP DP RH WIND PRES REMARKS AHOSKIE N/A 84 73 69 NE5 30.06F CLINTON MOSUNNY 92 71 49 NE3 30.05S ELIZABETHTOWN NOT AVBL GOLDSBORO MOSUNNY 93 69 45 W6 30.03S GREENVILLE MOSUNNY 90 72 55 N7 30.06S HAVELOCK CLOUDY 89 76 65 VRB6 30.04F HX 100 KENANSVILLE CLOUDY 90 73 58 W3 30.04F KINSTON CLOUDY 91 68 46 N3 30.05S NEW BERN MOSUNNY 91 75 59 VRB3 30.04F HX 101 RICHLANDS MOSUNNY 91 76 61 CALM 30.04S HX 103 ROCKY MOUNT MOSUNNY 89 72 56 NE6 30.06S WASHINGTON MOSUNNY 88 75 64 NE3 30.05S WHITEVILLE MOSUNNY 90 75 61 E3 30.04F HX 100 $$ AMZ130-135-150-152-154-156-158-170-250-252-270-ANZ085-086-088-633-658-670-251900- MARINE OBSERVATIONS STATION/POSITION TIME TEMP WIND PRES WAVE SWELL AIR SEA DIR/SP/G HT/PER HT/PER (UTC) (F) (DEG/KT/KT) (MB) (FT/S) (FT/S) CHESAPEAKE LIGHT NOT AVBL 64 E VA BEACH 1750 77 78 350/ 16/ 17 1018.3 3/ 4 2/ 7 DUCK 1742 75 72 20/ 13/ 15 1018.2 2 E DUCK 1800 76 N/A 2/ 6 OREGON INLET 1748 360/ 9/ 13 N/A 13E OREGON INLT 1748 74 N/A 3/ 6 2/ 6 HATTERAS CG 1742 84 78 350/ 3/ 5 1017.9 DIAMOND BUOY 1750 81 84 250/ 6/ 8 1017.9 4/ 7 3/ 7 CAPE LOOKOUT 1800 83 220/ 9/ 11 1017.1 BEAUFORT LAB 1742 84 80 200/ 11/ 14 1016.7 30 SE NEW RVR IN 1708 82 84 230/ 10/ 12 1017.9 30 SE NEW RVR IN 1743 84 N/A 3/ 6 27 SE WRIGHTSVLE 1708 83 83 220/ 10/ 14 1017.7 5 SE WRIGHTSVLE 1708 82 83 200/ 10/ 14 1017.5 225 S CAPE HAT 1750 80 83 270/ 14/ 17 1020.1 5/ 6 2/11 41 SE CHARLESTON 1750 81 83 230/ 10/ 12 1018.0 3/ 5 2/ 5 $$

USA.gov is the U.S. government's official web portal to all federal, state and local government web resources and services.